Location: Newark
(34.6283°N, 36.0776°E)
Time: 05:50:45
(UTC+00:00)

SR - Pass Details

Date: 26 October 2019
Orbit: 574 x 882 km, 66.7° (Epoch: 11 November)

Event Time Altitude Azimuth Distance (km) Brightness Sun altitude
Rises 02:12:19 0° 346° (NNW) 3,468 ? -20.7°
Reaches altitude 10° 02:15:24 10° 2° (N) 2,541 ? -20.1°
Maximum altitude 02:19:55 22° 51° (NE) 1,830 ? -19.2°
Drops below altitude 10° 02:24:22 10° 101° (E) 2,511 ? -18.3°
Sets 02:27:23 0° 116° (ESE) 3,416 ? -17.6°
